Stündliche Wetter Kyshen'ky

Heute, 16 Mai, Sonntag

Zeit Temperatur Niederschläge Wind Luftdruck Luftfeuchtigkeit
00:00 +16°C° 0 mm 2 m/S 753 mmHg 75%
01:00 +15°C° 0 mm 1 m/S 753 mmHg 76%
02:00 +15°C° 0 mm 1 m/S 753 mmHg 77%
03:00 +15°C° 0 mm 1 m/S 753 mmHg 77%
04:00 +15°C° 0 mm 1 m/S 753 mmHg 77%
05:00 +14°C° 0 mm 0 m/S 753 mmHg 77%
06:00 +18°C° 0 mm 1 m/S 753 mmHg 72%
07:00 +19°C° 0 mm 1 m/S 753 mmHg 67%
08:00 +20°C° 0 mm 2 m/S 753 mmHg 62%
09:00 +21°C° 0 mm 2 m/S 753 mmHg 58%
10:00 +24°C° 0 mm 2 m/S 753 mmHg 53%
11:00 +25°C° 0 mm 2 m/S 753 mmHg 49%
12:00 +26°C° 0 mm 3 m/S 752 mmHg 47%
13:00 +26°C° 0 mm 3 m/S 752 mmHg 45%
14:00 +27°C° 0 mm 3 m/S 752 mmHg 43%
15:00 +27°C° 0 mm 3 m/S 751 mmHg 46%
16:00 +26°C° 0 mm 3 m/S 751 mmHg 49%
17:00 +26°C° 0 mm 3 m/S 751 mmHg 53%
18:00 +24°C° 0.1 mm 3 m/S 750 mmHg 59%
19:00 +21°C° 0.1 mm 3 m/S 750 mmHg 66%
20:00 +19°C° 0.1 mm 3 m/S 750 mmHg 73%
21:00 +19°C° 0.6 mm 3 m/S 749 mmHg 79%
22:00 +18°C° 0.6 mm 3 m/S 749 mmHg 84%
23:00 +18°C° 0.6 mm 3 m/S 748 mmHg 90%

Morgen, 17 Mai, Montag

Zeit Temperatur Niederschläge Wind Luftdruck Luftfeuchtigkeit
00:00 +17°C° 0 mm 3 m/S 748 mmHg 91%
01:00 +17°C° 0 mm 3 m/S 748 mmHg 92%
02:00 +17°C° 0 mm 3 m/S 747 mmHg 93%
03:00 +17°C° 0 mm 3 m/S 747 mmHg 92%
04:00 +15°C° 0 mm 4 m/S 746 mmHg 92%
05:00 +15°C° 0 mm 4 m/S 745 mmHg 91%
06:00 +18°C° 0 mm 4 m/S 745 mmHg 84%
07:00 +19°C° 0 mm 4 m/S 746 mmHg 76%
08:00 +21°C° 0 mm 4 m/S 746 mmHg 69%
09:00 +22°C° 0.1 mm 4 m/S 746 mmHg 66%
10:00 +23°C° 0.1 mm 5 m/S 746 mmHg 63%
11:00 +25°C° 0.1 mm 5 m/S 745 mmHg 60%
12:00 +24°C° 0 mm 6 m/S 745 mmHg 61%
13:00 +26°C° 0 mm 7 m/S 745 mmHg 63%
14:00 +26°C° 0 mm 7 m/S 745 mmHg 64%
15:00 +24°C° 0 mm 7 m/S 745 mmHg 65%
16:00 +24°C° 0 mm 7 m/S 745 mmHg 66%
17:00 +24°C° 0 mm 7 m/S 745 mmHg 67%
18:00 +22°C° 0 mm 7 m/S 746 mmHg 71%
19:00 +18°C° 0 mm 7 m/S 746 mmHg 75%
20:00 +16°C° 0 mm 8 m/S 747 mmHg 79%
21:00 +16°C° 0 mm 8 m/S 747 mmHg 82%
22:00 +16°C° 0 mm 8 m/S 747 mmHg 85%
23:00 +16°C° 0 mm 8 m/S 746 mmHg 88%

übermorgen, 18 Mai, Dienstag

Zeit Temperatur Niederschläge Wind Luftdruck Luftfeuchtigkeit
00:00 +16°C° 0 mm 7 m/S 747 mmHg 88%
01:00 +16°C° 0 mm 7 m/S 747 mmHg 87%
02:00 +16°C° 0 mm 7 m/S 747 mmHg 86%
03:00 +15°C° 0 mm 6 m/S 747 mmHg 87%
04:00 +15°C° 0 mm 6 m/S 747 mmHg 88%
05:00 +14°C° 0 mm 5 m/S 747 mmHg 90%
06:00 +16°C° 0 mm 5 m/S 747 mmHg 84%
07:00 +17°C° 0 mm 6 m/S 748 mmHg 79%
08:00 +19°C° 0 mm 6 m/S 748 mmHg 74%
09:00 +20°C° 0.5 mm 7 m/S 748 mmHg 71%
10:00 +21°C° 0.5 mm 7 m/S 748 mmHg 67%
11:00 +22°C° 0.5 mm 8 m/S 747 mmHg 64%
12:00 +21°C° 0.7 mm 8 m/S 747 mmHg 67%
13:00 +21°C° 0.7 mm 8 m/S 747 mmHg 71%
14:00 +20°C° 0.7 mm 8 m/S 747 mmHg 75%
15:00 +20°C° 0.5 mm 8 m/S 747 mmHg 76%
16:00 +20°C° 0.5 mm 7 m/S 747 mmHg 77%
17:00 +20°C° 0.5 mm 7 m/S 747 mmHg 77%
18:00 +19°C° 0.4 mm 6 m/S 747 mmHg 81%
19:00 +17°C° 0.4 mm 5 m/S 747 mmHg 84%
20:00 +17°C° 0.4 mm 4 m/S 747 mmHg 87%
21:00 +15°C° 0.6 mm 4 m/S 747 mmHg 89%
22:00 +15°C° 0.6 mm 4 m/S 747 mmHg 91%
23:00 +14°C° 0.6 mm 3 m/S 747 mmHg 93%

19 Mai, Mittwoch

Zeit Temperatur Niederschläge Wind Luftdruck Luftfeuchtigkeit
00:00 +13°C° 0.1 mm 4 m/S 747 mmHg 93%
01:00 +13°C° 0.1 mm 4 m/S 748 mmHg 93%
02:00 +12°C° 0.1 mm 4 m/S 748 mmHg 94%
03:00 +10°C° 0 mm 5 m/S 748 mmHg 93%
04:00 +10°C° 0 mm 5 m/S 748 mmHg 92%
05:00 +10°C° 0 mm 5 m/S 749 mmHg 91%
06:00 +10°C° 0 mm 5 m/S 749 mmHg 89%
07:00 +11°C° 0 mm 6 m/S 749 mmHg 86%
08:00 +11°C° 0 mm 6 m/S 749 mmHg 83%
09:00 +13°C° 0.1 mm 6 m/S 749 mmHg 82%
10:00 +12°C° 0.1 mm 7 m/S 750 mmHg 81%
11:00 +12°C° 0.1 mm 7 m/S 750 mmHg 80%
12:00 +12°C° 0 mm 7 m/S 750 mmHg 79%
13:00 +12°C° 0 mm 8 m/S 751 mmHg 78%
14:00 +12°C° 0 mm 8 m/S 751 mmHg 78%
15:00 +13°C° 0 mm 8 m/S 751 mmHg 76%
16:00 +14°C° 0 mm 7 m/S 751 mmHg 74%
17:00 +14°C° 0 mm 7 m/S 751 mmHg 72%
18:00 +14°C° 0 mm 6 m/S 751 mmHg 75%
19:00 +13°C° 0 mm 5 m/S 752 mmHg 78%
20:00 +12°C° 0 mm 4 m/S 752 mmHg 81%
21:00 +11°C° 0 mm 4 m/S 753 mmHg 84%
22:00 +11°C° 0 mm 4 m/S 753 mmHg 87%
23:00 +10°C° 0 mm 3 m/S 753 mmHg 90%

20 Mai, Donnerstag

Zeit Temperatur Niederschläge Wind Luftdruck Luftfeuchtigkeit
00:00 +10°C° 0 mm 3 m/S 753 mmHg 90%
01:00 +9°C° 0 mm 3 m/S 753 mmHg 91%
02:00 +9°C° 0 mm 3 m/S 753 mmHg 91%
03:00 +9°C° 0 mm 2 m/S 753 mmHg 90%
04:00 +10°C° 0 mm 2 m/S 754 mmHg 89%
05:00 +11°C° 0 mm 1 m/S 754 mmHg 87%
06:00 +13°C° 0 mm 2 m/S 754 mmHg 81%
07:00 +15°C° 0 mm 2 m/S 754 mmHg 75%
08:00 +16°C° 0 mm 2 m/S 754 mmHg 68%
09:00 +17°C° 0 mm 2 m/S 754 mmHg 64%
10:00 +19°C° 0 mm 2 m/S 754 mmHg 59%
11:00 +20°C° 0 mm 2 m/S 754 mmHg 55%
12:00 +20°C° 0 mm 2 m/S 753 mmHg 54%
13:00 +20°C° 0 mm 2 m/S 753 mmHg 53%
14:00 +20°C° 0 mm 2 m/S 753 mmHg 52%
15:00 +20°C° 0 mm 3 m/S 753 mmHg 55%
16:00 +20°C° 0 mm 3 m/S 752 mmHg 58%
17:00 +20°C° 0 mm 4 m/S 752 mmHg 61%
18:00 +19°C° 0 mm 5 m/S 752 mmHg 64%
19:00 +17°C° 0 mm 5 m/S 751 mmHg 67%
20:00 +16°C° 0 mm 5 m/S 751 mmHg 69%
21:00 +16°C° 0 mm 5 m/S 751 mmHg 71%
22:00 +16°C° 0 mm 5 m/S 750 mmHg 72%
23:00 +16°C° 0 mm 6 m/S 749 mmHg 73%

21 Mai, Freitag

Zeit Temperatur Niederschläge Wind Luftdruck Luftfeuchtigkeit
00:00 +15°C° 0.4 mm 6 m/S 749 mmHg 78%
01:00 +15°C° 0.4 mm 7 m/S 748 mmHg 83%
02:00 +15°C° 0.4 mm 8 m/S 747 mmHg 88%
03:00 +15°C° 0.6 mm 8 m/S 747 mmHg 89%
04:00 +15°C° 0.6 mm 7 m/S 746 mmHg 89%
05:00 +15°C° 0.6 mm 7 m/S 746 mmHg 90%
06:00 +15°C° 0 mm 7 m/S 746 mmHg 87%
07:00 +15°C° 0 mm 7 m/S 747 mmHg 84%
08:00 +16°C° 0 mm 7 m/S 747 mmHg 81%
09:00 +16°C° 0 mm 7 m/S 747 mmHg 75%
10:00 +17°C° 0 mm 8 m/S 747 mmHg 69%
11:00 +18°C° 0 mm 8 m/S 748 mmHg 63%
12:00 +18°C° 0 mm 9 m/S 748 mmHg 61%
13:00 +18°C° 0 mm 9 m/S 748 mmHg 60%
14:00 +18°C° 0 mm 10 m/S 748 mmHg 59%
15:00 +18°C° 0 mm 10 m/S 748 mmHg 62%
16:00 +17°C° 0 mm 10 m/S 748 mmHg 64%
17:00 +16°C° 0 mm 10 m/S 748 mmHg 67%
18:00 +15°C° 0 mm 9 m/S 749 mmHg 70%
19:00 +13°C° 0 mm 9 m/S 749 mmHg 73%
20:00 +12°C° 0 mm 8 m/S 750 mmHg 76%
21:00 +12°C° 0 mm 7 m/S 750 mmHg 79%
22:00 +13°C° 0 mm 6 m/S 751 mmHg 82%
23:00 +13°C° 0 mm 5 m/S 752 mmHg 84%
Mehr zeigen

Wir brauchen deine Erlaubnis

Meteoprog und unser Service Anbieter werden persönliche Daten aufbewahren, so wie Cookies, Geräte Bezeichnung oder ähnliche Technologien von deinem Gerät und Prozess, so wie Persönliche Daten Inhalte und Werbungen, genauso wie social Media und den Verkehr zu analysieren.

  • Aufbewahrung und/oder Zugang zu deiner Geräte Informationen.

    Cookies, Geräte Bezeichnung oder andere Informationen, können aufbewahrt oder Zugang zu deinem Gerät erhalten, für den Grund, der oben angegeben wird.

  • Personalisierte Werbung und Inhalte, Messungen, Einblick in das Publikum und Produkt Entwicklung.

    Werbungen und Inhalte können personalisiert werden, basierend auf ein Profil. Mehr Daten können besser personalisierte Werbungen und Inhalte hinzufügen. Werbung und Inhalte können gezeigt und gemessen werden. Einblicke über das Publikum, welche die Werbung gesehen haben und den Inhalt, können abgeleitet werden. So wie Daten können genutzt werden, um es zu verbessern oder die Benutzer Erfahrung zu verbessern das System und die Software.

Wenn du “Ich stimme zu” klickst, erlaubst du uns, die Cookies zu benutzen die Geräte Bezeichnung, den Web oder ähnliche Technologien zu benutzen. Deine Settings, können in deinem Gerät bei deinem Browser geändert werden.

Für den bestimmten Zweck, berechtigten Interessen beruhen darauf, mehr als auf den Inhalt. Du kannst mehr darüber in unseren Privaten und Cookie Politik lesen.